Regional Weather Roundup
Issued by NWS

Home | Current Version | Previous Version | Text Only | Print | Product List | Glossary On
Versions: 1 2 3 4 5 6 7 8 9 10 11 12 13 14 15 16 17 18 19 20 21 22 23 24 25 26 27 28 29 30 31 32 33 34 35 36 37 38 39 40 41 42 43 44 45 46 47 48 49 50
000
ASUS43 KDMX 301807
RWRIA

WEATHER ROUNDUP FOR IOWA
NATIONAL WEATHER SERVICE DES MOINES IA
100 PM CDT THU JUL 30 2015

NOTE: "FAIR" INDICATES FEW OR NO CLOUDS BELOW 12,000 FEET WITH NO
SIGNIFICANT WEATHER AND/OR OBSTRUCTIONS TO VISIBILITY.

* - THESE STATIONS ARE NOT NWS STATIONS...THUS NOT UNDER NWS
QUALITY CONTROL.  THEY ALSO DO NOT REPORT WEATHER SUCH
AS PRECIPITATION OR FOG.

IAZ001>003-012>014-020>022-031>034-043>046-301900-
   NORTHWEST IOWA

CITY           SKY/WX    TMP DP  RH WIND       PRES   REMARKS
CARROLL *      SUNNY     81  66  61 W13       30.18F HX  83
CHEROKEE *     SUNNY     81  65  59 W10G17    30.16F HX  82
DENISON *      HAZE      81  64  57 W14       30.18F VSB 1/2 HX  82
LE MARS *      SUNNY     82  66  57 W8G16     30.17F HX  85
ORANGE CITY *  SUNNY     81  66  61 W8        30.17S HX  83
SHELDON *      SUNNY     81  66  61 W7        30.16S HX  83
SIOUX CITY     SUNNY     83  65  54 W13       30.17F HX  85
6HR MIN TEMP:  64; 6HR MAX TEMP:  84;

SPENCER        SUNNY     84  63  49 W8        30.16R HX  85
6HR MIN TEMP:  57; 6HR MAX TEMP:  84;

STORM LAKE *   SUNNY     81  64  57 W15       30.19S HX  82
$$

IAZ055>058-069>071-079>083-090>094-301900-
   SOUTHWEST IOWA

CITY           SKY/WX    TMP DP  RH WIND       PRES   REMARKS
ATLANTIC *     SUNNY     82  61  47 W12       30.20F HX  83
AUDUBON *      SUNNY     82  64  54 W7        30.21F HX  84
CLARINDA *     SUNNY     84  61  45 W10       30.22S HX  84
COUNCIL BLFS * SUNNY     86  57  37 SW12      30.21F HX  85
CRESTON *      SUNNY     82  61  47 W12       30.22F HX  83
HARLAN  *      SUNNY     82  66  57 W10G16    30.24S HX  85
LAMONI           N/A     84  62  47 MISG      30.21S HX  85
6HR MIN TEMP:  65; 6HR MAX TEMP:  84;

RED OAK *      SUNNY     84  61  45 W9        30.21S HX  84
SHENANDOAH *   SUNNY     84  64  51 SW8G15    30.21S HX  86
$$

IAZ047>049-059>061-072>074-084-301900-
   CENTRAL IOWA

CITY           SKY/WX    TMP DP  RH WIND       PRES   REMARKS
AMES           MOSUNNY   82  64  54 W14G23    30.15F HX  83
6HR MIN TEMP:  61; 6HR MAX TEMP:  83;

ANKENY *       SUNNY     84  64  51 W12G18    30.16F HX  86
CHARITON *     SUNNY     84  61  45 W10G20    30.19S HX  84
DES MOINES     MOSUNNY   87  60  40 W14       30.16F HX  87
6HR MIN TEMP:  65; 6HR MAX TEMP:  87;

GRINNELL*      SUNNY     82  63  51 W16       30.16S HX  83
KNOXVILLE *    SUNNY     84  64  51 W10G17    30.16S HX  86
MARSHALLTOWN   SUNNY     82  68  62 W10       30.13F HX  85
6HR MIN TEMP:  60; 6HR MAX TEMP:  82;

PELLA *        SUNNY     83  68  60 W12       30.18S HX  86
PERRY *          N/A     82  68  61 W10       30.18S HX  85
$$

IAZ004>006-015-016-023>025-035-036-301900-
   NORTH CENTRAL IOWA

CITY           SKY/WX    TMP DP  RH WIND       PRES   REMARKS
ALGONA *       SUNNY     82  64  54 W9G15     30.15S HX  84
CLARION *      SUNNY     81  68  65 W10       30.15S HX  83
ESTHERVILLE    SUNNY     82  61  48 NW8       30.15S HX  83
6HR MIN TEMP:  59; 6HR MAX TEMP:  82;

FORT DODGE *   SUNNY     82  64  54 W9G17     30.16F HX  84
MASON CITY     SUNNY     84  61  45 W13       30.15S HX  84
6HR MIN TEMP:  64; 6HR MAX TEMP:  84;

FOREST CITY *  SUNNY     81  59  47 NW10      30.14S HX  81
IOWA FALLS *     N/A     82  66  58 W13       30.16S HX  84
$$

IAZ007>011-017>019-026>030-037>042-050>054-066-301900-
   NORTHEAST IOWA

CITY           SKY/WX    TMP DP  RH WIND       PRES   REMARKS
CEDAR RAPIDS   SUNNY     82  67  60 SW9       30.12F HX  84
6HR MIN TEMP:  62; 6HR MAX TEMP:  82;

CHARLES CITY * SUNNY     82  64  54 W12G18    30.13S HX  84
CLINTON *      SUNNY     82  64  54 W10       30.13F HX  84
DECORAH *      SUNNY     81  59  47 W10G17    30.09S HX  81
DUBUQUE        SUNNY     83  59  44 W13       30.11F HX  83
6HR MIN TEMP:  65; 6HR MAX TEMP:  83;

MONTICELLO *   SUNNY     84  63  48 W8G14     30.11F HX  85
OELWEIN *      SUNNY     82  64  54 W10       30.13S HX  84
WATERLOO       SUNNY     84  66  54 W9        30.11S HX  86
6HR MIN TEMP:  63; 6HR MAX TEMP:  84;

$$

IAZ064-065-067-068-078-301900-
   EAST CENTRAL IOWA

CITY           SKY/WX    TMP DP  RH WIND       PRES   REMARKS
DAVENPORT      SUNNY     84  66  54 W7        30.12F HX  86
6HR MIN TEMP:  63; 6HR MAX TEMP:  84;

IOWA CITY      SUNNY     85  65  51 W12       30.13F HX  86
6HR MIN TEMP:  64; 6HR MAX TEMP:  85;

MT. PLEASANT * SUNNY     85  52  31 W8G16     30.15F HX  83
MUSCATINE *    SUNNY     86  64  48 W8G14     30.13S HX  87
QUAD CITIES    SUNNY     86  61  42 W9        30.11F HX  86
6HR MIN TEMP:  67; 6HR MAX TEMP:  87;

$$

IAZ062-063-075>077-085>089-095>099-301900-
   SOUTHEAST IOWA

CITY           SKY/WX    TMP DP  RH WIND       PRES   REMARKS
BURLINGTON     SUNNY     84  61  45 W12G20    30.15F HX  84
6HR MIN TEMP:  65; 6HR MAX TEMP:  85;

FAIRFIELD *    SUNNY     82  63  51 W13       30.16F HX  83
FORT MADISON * SUNNY     82  66  57 W12       30.16F HX  85
KEOKUK *       SUNNY     86  63  45 W10G16    30.15F HX  87
OSKALOOSA *      N/A     82  65  55 W8        30.17S HX  83
CENTERVILLE *  SUNNY     84  63  48 W10       30.20F HX  85
OTTUMWA        SUNNY     83  66  56 W13       30.15F HX  85
6HR MIN TEMP:  63; 6HR MAX TEMP:  83;

WASHINGTON *   SUNNY     82  64  54 W14G20    30.16S HX  84
$$

ABBREVIATIONS USED IN REMARKS
   TC - TEMPERATURES IN CELSIUS
  WCI - WIND CHILL INDEX
   HX - HEAT INDEX
  VSB - VISIBILITY
$$




USA.gov is the U.S. government's official web portal to all federal, state and local government web resources and services.